1502233200.83,29936,21.0,74374.0,8.11,-23.75,-26.17,0,*73
1502233202.08,29937,21.0,74376.3,8.09,-23.49,-26.17,0,*74
1502233203.31,29938,21.0,74380.0,8.09,-23.49,-26.07,0,*7A
1502233204.52,29939,21.0,74384.3,8.09,-23.43,-26.07,0,*71
1502233205.72,29940,21.0,74380.5,8.09,-22.67,-25.23,0,*7D
1502233206.92,29941,21.0,74378.5,8.09,-22.83,-25.61,0,*70
1502233208.2,29942,21.0,74374.8,8.11,-23.23,-25.75,0,*74
1502233209.42,29943,21.0,74376.5,8.09,-23.29,-25.91,0,*7C
1502233210.63,29944,21.0,74378.8,8.09,-23.43,-26.03,0,*7F
1502233211.86,29945,21.0,74378.8,8.09,-23.29,-25.87,0,*7D
1502233213.13,29946,21.0,74378.0,8.11,-23.65,-26.17,0,*75
1502233214.39,29947,21.0,74378.8,8.11,-22.97,-25.55,0,*7D
1502233215.62,29948,21.06,74380.5,8.11,-23.43,-26.07,0,*7E
1502233216.85,29949,21.0,74376.3,8.11,-22.97,-25.61,0,*74
1502233218.1,29950,21.0,74376.8,8.15,-23.23,-25.71,0,*77
1502233219.33,29951,21.0,74374.3,8.09,-23.49,-26.07,0,*75
1502233220.56,29952,21.0,74374.3,8.09,-23.75,-26.33,0,*7E
1502233221.84,29953,21.0,74372.5,8.07,-23.49,-26.13,0,*7C
1502233223.07,29954,21.0,74374.5,8.09,-23.49,-26.07,0,*70
1502233224.27,29955,21.0,74376.5,8.09,-23.59,-26.07,0,*70
1502233225.52,29956,21.0,74378.5,8.07,-23.53,-26.23,0,*71
1502233226.78,29957,21.0,74374.8,8.07,-23.69,-26.29,0,*73
1502233227.99,29958,21.0,74378.0,8.09,-23.89,-26.39,0,*7D
1502233229.24,29959,21.0,74376.0,8.07,-23.95,-26.39,0,*7F
1502233230.48,29960,21.0,74378.5,8.07,-23.99,-26.61,0,*74
1502233231.75,29961,21.0,74376.5,8.07,-23.99,-26.55,0,*72
1502233232.96,29962,21.0,74376.3,8.09,-23.79,-26.39,0,*7B
1502233234.16,29963,21.0,74380.5,8.05,-23.75,-26.45,0,*71
1502233235.36,29964,21.0,74376.3,8.05,-23.89,-26.45,0,*75
1502233236.58,29965,21.0,74374.5,8.03,-23.89,-26.45,0,*72
1502233237.8,29966,21.0,74374.0,8.05,-23.99,-26.49,0,*7A
1502233239.03,29967,21.0,74378.5,8.05,-23.75,-26.29,0,*7F
1502233240.3,29968,21.0,74378.3,8.03,-23.69,-26.29,0,*7B
1502233241.53,29969,21.06,74378.8,8.03,-23.89,-26.49,0,*72
1502233242.8,29970,21.0,74376.0,8.07,-23.99,-26.55,0,*72
1502233244.02,29971,21.0,74378.0,8.03,-23.89,-26.45,0,*77
1502233245.28,29972,21.06,74378.5,8.03,-23.75,-26.29,0,*7D
1502233246.51,29973,21.0,74372.3,8.05,-23.75,-26.33,0,*71
1502233247.74,29974,21.0,74376.8,8.05,-23.75,-26.29,0,*7D
1502233248.99,29975,21.0,74374.0,8.03,-24.15,-26.65,0,*73
1502233250.22,29976,21.06,74380.5,8.03,-24.05,-26.61,0,*75
1502233251.45,29977,21.06,74376.3,8.03,-24.05,-26.49,0,*7E
1502233252.7,29978,21.06,74378.5,8.05,-23.49,-25.97,0,*78
1502233253.96,29979,21.0,74374.5,8.03,-23.49,-26.03,0,*71
1502233255.16,29980,21.0,74374.3,8.01,-23.89,-26.39,0,*70
1502233256.39,29981,21.0,74372.8,8.01,-24.05,-26.55,0,*78
1502233257.66,29982,21.0,74372.3,7.99,-24.15,-26.55,0,*74
1502233258.94,29983,21.0,74372.3,7.99,-24.25,-26.77,0,*76
1502233260.23,29984,21.0,74376.3,7.99,-24.25,-26.77,0,*71
1502233261.48,29985,21.0,74374.8,8.01,-24.15,-26.77,0,*7D
1502233262.71,29986,21.0,74372.3,8.01,-24.21,-26.65,0,*7A
1502233263.99,29987,21.0,74376.3,7.99,-24.25,-26.97,0,*7C
1502233265.25,29988,21.0,74376.0,7.99,-24.31,-26.97,0,*76
1502233266.51,29989,21.0,74372.0,7.97,-24.41,-26.93,0,*7A
1502233267.75,29990,21.0,74374.3,7.97,-24.31,-26.77,0,*7F
1502233268.98,29991,21.0,74374.5,7.95,-24.47,-27.13,0,*7E
1502233270.21,29992,21.0,74374.8,7.97,-24.41,-27.07,0,*7C
1502233271.45,29993,21.0,74374.5,7.97,-24.31,-26.93,0,*76
1502233272.68,29994,21.0,74372.8,7.97,-24.31,-26.97,0,*75
1502233273.94,29995,21.0,74374.5,7.95,-24.31,-26.77,0,*78
1502233275.22,29996,21.0,74374.3,7.95,-23.69,-26.17,0,*77
1502233276.44,29997,21.0,74370.8,7.95,-23.89,-26.49,0,*73
1502233277.69,29998,21.0,74370.0,7.95,-23.99,-26.45,0,*71
1502233278.95,29999,21.0,74372.0,7.95,-24.21,-26.65,0,*76
1502233280.18,30000,21.06,74374.3,7.95,-24.05,-26.61,0,*75
1502233281.43,30001,21.0,74372.0,7.95,-24.15,-26.65,0,*71
1502233282.66,30002,21.0,74372.5,7.97,-24.31,-26.93,0,*7F
1502233283.87,30003,21.0,74374.5,7.93,-24.35,-27.03,0,*76
1502233285.1,30004,21.0,74372.0,7.93,-24.61,-27.19,0,*7B
1502233286.31,30005,21.0,74376.0,7.93,-24.61,-27.13,0,*70
1502233287.54,30006,21.0,74374.5,7.93,-24.35,-26.97,0,*7F
1502233288.78,30007,21.0,74372.3,7.93,-24.21,-26.65,0,*76
1502233289.99,30008,21.0,74374.3,7.89,-24.51,-27.07,0,*70
1502233291.22,30009,21.0,74374.3,7.89,-24.41,-27.03,0,*74
1502233292.44,30010,21.0,74378.5,7.89,-24.51,-27.03,0,*7D
1502233293.64,30011,21.0,74372.8,7.89,-24.57,-27.07,0,*7E
1502233294.88,30012,21.0,74372.0,7.93,-24.35,-26.97,0,*7A
1502233296.12,30013,21.0,74372.3,7.89,-24.41,-27.03,0,*7F
1502233297.4,30014,21.0,74374.3,7.87,-24.41,-26.77,0,*74
1502233298.62,30015,21.0,74376.8,7.85,-24.31,-26.87,0,*7F
1502233299.88,30016,21.0,74374.0,7.87,-24.31,-26.77,0,*71
1502233301.14,30017,21.0,74376.3,7.85,-24.41,-26.77,0,*75
1502233302.38,30018,21.0,74380.3,7.87,-24.31,-26.87,0,*70
1502233303.64,30019,21.0,74372.8,7.85,-24.41,-26.93,0,*71
1502233304.87,30020,21.0,74374.5,7.87,-24.47,-27.07,0,*73
1502233306.09,30021,21.0,74378.0,7.85,-24.47,-26.87,0,*79
1502233307.34,30022,21.0,74378.0,7.83,-24.31,-26.77,0,*72
1502233308.57,30023,21.0,74374.5,7.85,-23.95,-26.45,0,*7D
1502233309.8,30024,21.0,74378.0,7.85,-23.99,-26.45,0,*76
1502233311.03,30025,21.0,74380.0,7.85,-24.15,-26.61,0,*72
1502233312.27,30026,21.0,74376.5,7.85,-24.25,-26.61,0,*72
1502233313.5,30027,21.0,74376.8,7.85,-24.31,-26.71,0,*77
1502233314.74,30028,21.0,74380.3,7.85,-24.25,-26.61,0,*7C
1502233315.99,30029,21.0,74376.3,7.83,-24.35,-26.81,0,*74
1502233317.25,30030,21.06,74380.3,7.83,-24.47,-26.93,0,*7A
1502233318.5,30031,21.06,74376.8,7.83,-24.21,-26.65,0,*72
1502233319.71,30032,21.0,74374.8,7.81,-24.05,-26.61,0,*71
1502233320.97,30033,21.0,74372.0,7.83,-24.21,-26.65,0,*70
1502233322.22,30034,21.0,74372.0,7.83,-23.89,-26.33,0,*71
1502233323.48,30035,21.0,74372.8,7.81,-23.99,-26.33,0,*73
1502233324.72,30036,21.0,74372.0,7.83,-24.15,-26.49,0,*7C
1502233325.92,30037,21.0,74376.8,7.81,-24.05,-26.49,0,*7E
1502233327.15,30038,21.0,74378.5,7.83,-23.89,-26.49,0,*70
1502233328.39,30039,21.0,74382.0,7.83,-24.15,-26.65,0,*7D
1502233329.63,30040,21.0,74380.0,7.81,-24.31,-26.77,0,*74
1502233330.87,30041,21.0,74380.0,7.81,-24.47,-26.81,0,*7D
1502233332.1,30042,21.0,74382.8,7.83,-24.35,-26.65,0,*73
1502233333.33,30043,21.06,74384.0,7.81,-24.47,-26.93,0,*7C
1502233334.57,30044,21.0,74378.0,7.81,-24.51,-26.97,0,*78
1502233335.81,30045,21.0,74382.3,7.81,-24.51,-26.93,0,*7D
1502233337.02,30046,21.0,74382.3,7.81,-24.47,-26.65,0,*70
1502233338.25,30047,21.0,74380.3,7.79,-24.51,-26.81,0,*7B
1502233339.5,30048,21.0,74378.5,7.79,-24.41,-26.81,0,*75
1502233340.73,30049,21.0,74378.8,7.79,-24.41,-26.65,0,*7E
1502233342.01,30050,21.06,74380.8,7.77,-24.25,-26.71,0,*7F
1502233343.28,30051,21.0,74378.3,7.77,-24.15,-26.71,0,*7D
1502233344.51,30052,21.06,74382.0,7.79,-24.35,-26.71,0,*72
1502233345.74,30053,21.0,74380.5,7.79,-24.35,-26.81,0,*7C
1502233346.98,30054,21.0,74380.0,7.79,-24.11,-26.55,0,*74
1502233348.23,30055,21.0,74382.3,7.79,-24.11,-26.55,0,*75
1502233349.51,30056,21.06,74384.8,7.77,-24.25,-26.77,0,*7F
1502233350.8,30057,21.0,74382.0,7.77,-24.25,-26.71,0,*78
1502233352.08,30058,21.0,74380.3,7.77,-24.25,-26.77,0,*71
1502233353.33,30059,21.0,74382.5,7.77,-24.15,-26.61,0,*74
1502233354.59,30060,21.0,74380.5,7.77,-24.31,-26.77,0,*7F
1502233355.84,30061,21.06,74386.0,7.77,-23.49,-25.87,0,*7A
1502233357.1,30062,21.0,74386.8,7.77,-23.49,-26.07,0,*72
1502233358.32,30063,21.0,74386.8,7.77,-23.59,-25.91,0,*7E
1502233359.58,30064,21.0,74386.8,7.79,-23.29,-25.71,0,*7E
1502233360.8,30065,21.06,74388.8,7.79,-22.57,-25.03,0,*72
1502233361.99,30066,21.0,74382.3,7.79,-23.39,-25.87,0,*74
1502233363.21,30067,21.0,74382.5,7.79,-23.69,-26.07,0,*7B
1502233364.42,30068,21.0,74382.8,7.79,-23.75,-26.39,0,*74
1502233365.65,30069,21.0,74384.3,7.79,-23.85,-26.39,0,*7A
1502233366.9,30070,21.0,74382.5,7.77,-23.99,-26.61,0,*7C
1502233368.09,30071,21.0,74384.0,7.79,-24.05,-26.49,0,*7B
1502233369.3,30072,21.0,74382.3,7.79,-23.09,-25.65,0,*7E
1502233370.53,30073,21.0,74378.5,7.79,-23.53,-26.07,0,*77
1502233371.73,30074,21.0,74382.0,7.79,-23.75,-26.23,0,*72
1502233372.95,30075,21.0,74384.0,7.79,-23.95,-26.49,0,*71
1502233374.17,30076,21.0,74384.3,7.79,-24.11,-26.65,0,*77
1502233375.45,30077,21.0,74382.5,7.77,-24.15,-26.77,0,*7F
1502233376.67,30078,21.0,74386.3,7.79,-24.21,-26.65,0,*7A
1502233377.87,30079,21.0,74380.8,7.79,-24.05,-26.65,0,*7D
1502233379.15,30080,21.0,74380.8,7.77,-24.11,-26.71,0,*75
1502233380.4,30081,21.0,74380.8,7.77,-23.99,-26.61,0,*72
1502233381.61,30082,21.0,74380.0,7.79,-23.59,-26.03,0,*77
1502233382.86,30083,21.06,74380.3,7.77,-23.33,-26.07,0,*70
1502233384.11,30084,21.06,74388.3,7.77,-23.95,-26.61,0,*7B
1502233385.34,30085,21.0,74384.8,7.79,-24.11,-26.65,0,*7B
1502233386.59,30086,21.0,74386.5,7.77,-23.99,-26.61,0,*75
1502233387.86,30087,21.06,74386.8,7.77,-24.11,-26.71,0,*72
1502233389.14,30088,21.0,74384.0,7.77,-24.11,-26.71,0,*7D
1502233390.42,30089,21.0,74382.0,7.77,-23.65,-26.13,0,*7C
1502233391.7,30090,21.0,74384.0,7.77,-23.29,-25.71,0,*7B
1502233392.95,30091,21.0,74378.0,7.77,-22.47,-24.93,0,*7E
1502233394.21,30092,21.0,74376.3,7.77,-22.77,-25.13,0,*77
1502233395.46,30093,21.0,74374.8,7.79,-21.83,-24.25,0,*74
1502233396.67,30094,21.0,74368.0,7.79,-22.57,-25.09,0,*76
1502233397.92,30095,21.0,74378.0,7.83,-23.49,-26.03,0,*75
1502233399.12,30096,21.0,74378.3,7.81,-23.89,-26.49,0,*76
1502233400.32,30097,21.0,74378.5,7.81,-23.89,-26.45,0,*7B
1502233401.58,30098,21.0,74378.3,7.81,-23.23,-25.75,0,*74
1502233402.82,30099,21.06,74378.8,7.81,-23.49,-26.03,0,*7B
1502233404.03,30100,21.0,74380.5,7.81,-23.09,-25.49,0,*73
1502233405.27,30101,21.06,74380.3,7.83,-22.93,-25.61,0,*78
1502233406.47,30102,21.0,74382.8,7.81,-23.89,-26.49,0,*7A
1502233407.71,30103,21.0,74386.5,7.83,-24.15,-26.61,0,*71
1502233408.91,30104,21.0,74386.3,7.79,-24.05,-26.49,0,*78
1502233410.11,30105,21.06,74386.8,7.79,-23.13,-25.65,0,*74
1502233411.31,30106,21.0,74376.8,7.79,-22.63,-25.19,0,*7A
1502233412.56,30107,21.0,74376.3,7.81,-23.33,-25.81,0,*79
1502233413.79,30108,21.0,74376.3,7.81,-23.33,-25.87,0,*70
1502233415.03,30109,21.0,74378.3,7.81,-23.53,-26.03,0,*78
1502233416.25,30110,21.0,74382.5,7.81,-23.99,-26.49,0,*78
1502233417.46,30111,21.0,74386.0,7.81,-24.05,-26.45,0,*77
1502233418.71,30112,21.0,74384.0,7.81,-23.85,-26.17,0,*7C
1502233419.97,30113,21.06,74386.3,7.81,-23.23,-25.75,0,*76
1502233421.17,30114,21.0,74382.3,7.81,-23.39,-26.03,0,*78
1502233422.43,30115,21.0,74384.8,7.83,-23.79,-26.29,0,*77
1502233423.64,30116,21.0,74386.8,7.83,-23.39,-25.87,0,*77
1502233424.88,30117,21.0,74382.3,7.81,-23.53,-26.03,0,*77
1502233426.16,30118,21.0,74382.0,7.83,-23.53,-26.17,0,*7F
1502233427.44,30119,21.0,74382.0,7.83,-23.53,-26.29,0,*73
1502233428.71,30120,21.0,74380.0,7.83,-23.69,-26.33,0,*7B
1502233429.97,30121,21.0,74380.3,7.81,-23.65,-26.13,0,*76
1502233431.25,30122,21.0,74386.5,7.83,-23.53,-26.13,0,*72
1502233432.5,30123,21.0,74384.8,7.81,-23.53,-26.13,0,*71
1502233433.75,30124,21.06,74384.0,7.83,-22.87,-25.45,0,*7C
1502233435.0,30125,21.0,74384.0,7.83,-22.67,-25.29,0,*79
1502233436.28,30126,21.0,74384.3,7.83,-23.53,-26.13,0,*76
1502233437.5,30127,21.0,74386.5,7.83,-23.79,-26.45,0,*7C
1502233438.71,30128,21.0,74384.8,7.81,-22.87,-25.61,0,*74
1502233439.91,30129,21.0,74382.5,7.81,-23.39,-26.03,0,*76
1502233441.16,30130,21.0,74384.0,7.81,-23.69,-26.33,0,*78
1502233442.38,30131,21.0,74382.3,7.85,-23.43,-26.07,0,*72
1502233443.63,30132,21.0,74380.5,7.81,-23.65,-26.33,0,*76
1502233444.83,30133,21.0,74382.3,7.81,-23.79,-26.49,0,*77
1502233446.04,30134,21.0,74386.5,7.81,-24.05,-26.61,0,*76
1502233447.27,30135,21.0,74384.8,7.81,-23.99,-26.61,0,*75
1502233448.55,30136,21.06,74384.8,7.83,-23.53,-26.29,0,*7E
1502233449.8,30137,21.0,74380.0,7.81,-23.69,-26.33,0,*7F
1502233451.08,30138,21.0,74382.5,7.83,-23.49,-25.97,0,*7D
1502233452.33,30139,21.0,74380.3,7.81,-23.65,-26.17,0,*7B
1502233453.59,30140,21.0,74378.3,7.81,-23.49,-26.13,0,*7F
1502233454.84,30141,21.06,74382.3,7.81,-23.69,-26.17,0,*78
1502233456.06,30142,21.0,74382.5,7.81,-23.23,-25.87,0,*7F
1502233457.32,30143,21.0,74384.8,7.81,-23.65,-26.29,0,*7B
1502233458.55,30144,21.0,74384.8,7.83,-23.79,-26.45,0,*79
1502233459.74,30145,21.0,74384.3,7.81,-23.39,-25.87,0,*73
1502233461.02,30146,21.0,74382.5,7.83,-23.33,-25.81,0,*7E
1502233462.22,30147,21.0,74386.5,7.81,-23.39,-26.03,0,*7E
1502233463.48,30148,21.0,74382.0,7.83,-23.53,-26.03,0,*7F
1502233464.71,30149,21.0,74382.3,7.81,-23.23,-25.87,0,*74
1502233465.96,30150,21.0,74384.5,7.83,-23.49,-26.03,0,*7D
1502233467.22,30151,21.06,74388.8,7.81,-23.49,-26.13,0,*7F
1502233468.49,30152,21.0,74382.0,7.83,-23.65,-26.29,0,*79
1502233469.7,30153,21.0,74382.5,7.81,-23.79,-26.45,0,*7D
1502233470.93,30154,21.0,74378.3,7.83,-23.79,-26.45,0,*78
1502233472.15,30155,21.0,74382.0,7.81,-23.85,-26.45,0,*78
1502233473.39,30156,21.0,74384.5,7.81,-23.79,-26.33,0,*79
1502233474.64,30157,21.0,74384.5,7.81,-23.49,-26.13,0,*79
1502233475.87,30158,21.0,74386.5,7.81,-23.39,-25.97,0,*7E
1502233477.13,30159,21.0,74386.3,7.83,-23.09,-25.75,0,*72
1502233478.38,30160,21.0,74384.0,7.83,-23.09,-25.81,0,*73
1502233479.61,30161,21.0,74380.5,7.81,-22.73,-25.35,0,*73
1502233480.84,30162,21.06,74386.5,7.83,-22.93,-25.65,0,*79
1502233482.07,30163,21.0,74382.3,7.85,-23.19,-25.91,0,*76
1502233483.33,30164,21.0,74380.5,7.85,-23.33,-25.97,0,*7F
1502233484.59,30165,21.0,74376.8,7.87,-23.33,-26.07,0,*76
1502233485.8,30166,21.0,74380.3,7.85,-23.43,-26.07,0,*70
1502233487.03,30167,21.0,74386.5,7.85,-23.85,-26.45,0,*7D
1502233488.3,30168,21.0,74384.0,7.87,-23.85,-26.71,0,*77
1502233489.56,30169,21.0,74386.0,7.85,-24.11,-26.93,0,*72
1502233490.82,30170,21.0,74388.8,7.85,-24.25,-26.93,0,*7D
1502233492.09,30171,21.0,74380.0,7.83,-23.69,-26.33,0,*7F
1502233493.35,30172,21.0,74380.0,7.85,-23.49,-26.29,0,*73
1502233494.59,30173,21.0,74382.0,7.85,-23.43,-26.29,0,*78
1502233495.79,30174,21.0,74380.0,7.85,-23.79,-26.45,0,*7C
1502233497.02,30175,21.0,74382.5,7.85,-23.99,-26.87,0,*7D
1502233498.28,30176,21.0,74380.3,7.85,-24.25,-27.23,0,*71
1502233499.52,30177,21.0,74382.8,7.85,-24.31,-27.23,0,*75
1502233500.74,30178,21.0,74384.3,7.83,-23.89,-26.61,0,*7F
1502233501.97,30179,21.06,74386.5,7.81,-23.99,-26.65,0,*79
1502233503.23,30180,21.0,74382.5,7.83,-23.33,-26.03,0,*7D
1502233504.46,30181,21.0,74384.3,7.85,-23.95,-26.61,0,*72
1502233505.73,30182,21.0,74378.0,7.83,-23.49,-26.17,0,*77
1502233506.99,30183,21.0,74378.5,7.81,-23.49,-26.13,0,*70
1502233508.21,30184,21.0,74376.5,7.83,-23.79,-26.49,0,*79
1502233509.47,30185,21.0,74382.8,7.83,-24.05,-26.81,0,*70
1502233510.75,30186,21.0,74380.5,7.83,-24.21,-26.77,0,*7C
1502233512.0,30187,21.0,74380.5,7.81,-24.15,-26.93,0,*72
1502233513.24,30188,21.0,74378.3,7.81,-24.31,-26.97,0,*7F
1502233514.51,30189,21.0,74372.5,7.83,-24.15,-26.97,0,*7A
1502233515.8,30190,21.0,74376.3,7.83,-24.21,-26.81,0,*72
1502233517.03,30191,21.0,74378.0,7.81,-23.99,-26.65,0,*7F
1502233518.25,30192,21.0,74382.5,7.83,-24.35,-27.13,0,*7F
1502233519.49,30193,21.0,74378.5,7.81,-24.47,-27.35,0,*7D
1502233520.73,30194,21.0,74380.3,7.81,-24.47,-27.19,0,*74
1502233521.96,30195,21.0,74382.0,7.81,-24.47,-27.19,0,*75
1502233523.2,30196,21.0,74380.5,7.81,-24.47,-27.19,0,*76
1502233524.44,30197,21.0,74376.5,7.81,-24.47,-26.97,0,*70
1502233525.69,30198,21.0,74378.3,7.79,-24.41,-26.97,0,*7E
1502233526.92,30199,21.0,74376.0,7.79,-24.51,-27.19,0,*79
1502233528.18,30200,21.0,74378.0,7.79,-24.71,-27.39,0,*7A
1502233529.4,30201,21.0,74378.0,7.81,-24.77,-27.45,0,*71
1502233530.6,30202,21.0,74380.8,7.79,-24.57,-27.51,0,*72
1502233531.82,30203,21.0,74384.5,7.79,-24.57,-27.19,0,*7F
1502233533.07,30204,21.0,74386.8,7.77,-24.77,-27.45,0,*7D
1502233534.3,30205,21.0,74384.8,7.79,-24.57,-27.19,0,*79
1502233535.55,30206,21.0,74382.5,7.77,-24.61,-27.23,0,*78
1502233536.78,30207,21.0,74386.5,7.79,-24.51,-26.97,0,*7A
1502233538.04,30208,21.0,74386.8,7.77,-23.59,-26.13,0,*78
1502233539.31,30209,21.0,74386.5,7.77,-24.15,-26.71,0,*72
1502233540.54,30210,21.0,74390.3,7.77,-23.75,-26.23,0,*7C
1502233541.74,30211,21.0,74386.8,7.79,-22.97,-25.65,0,*7F
1502233542.94,30212,21.0,74388.0,7.79,-24.05,-26.65,0,*72
1502233544.17,30213,21.0,74390.8,7.79,-24.25,-26.87,0,*7D
1502233545.42,30214,21.0,74392.3,7.79,-24.11,-26.55,0,*72
1502233546.67,30215,21.06,74390.5,7.77,-22.67,-25.29,0,*72
1502233547.86,30216,21.0,74384.5,7.79,-22.11,-24.57,0,*76
1502233549.1,30217,21.0,74378.0,7.81,-22.57,-25.03,0,*72
1502233550.35,30218,21.0,74374.8,7.83,-23.49,-26.03,0,*72
1502233551.58,30219,21.0,74376.8,7.83,-24.05,-26.65,0,*7C
1502233552.84,30220,21.0,74376.8,7.83,-23.79,-26.29,0,*72
1502233554.09,30221,21.0,74372.5,7.81,-23.19,-25.81,0,*76
1502233555.37,30222,21.06,74380.5,7.83,-23.53,-26.29,0,*78
1502233556.65,30223,21.0,74382.3,7.83,-23.53,-26.17,0,*74
1502233557.9,30224,21.0,74382.0,7.83,-23.03,-25.87,0,*7C
1502233559.14,30225,21.0,74376.5,7.83,-21.83,-24.35,0,*7F
1502233560.37,30226,21.0,74370.5,7.89,-21.73,-24.41,0,*7A
1502233561.63,30227,21.0,74376.0,7.87,-22.83,-25.55,0,*7D
1502233562.87,30228,21.0,74378.3,7.87,-23.59,-26.07,0,*70
1502233564.15,30229,21.0,74386.0,7.87,-24.11,-26.77,0,*7D
1502233565.39,30230,21.0,74368.5,7.93,-22.47,-25.13,0,*74
1502233566.61,30231,21.0,74366.3,7.93,-22.37,-24.83,0,*7A
1502233567.82,30232,21.0,74366.0,7.93,-22.87,-25.49,0,*75
1502233569.06,30233,21.0,74366.0,7.93,-22.77,-25.49,0,*7B
1502233570.32,30234,21.0,74368.5,7.93,-23.33,-25.97,0,*7E
1502233571.55,30235,21.0,74364.8,7.93,-23.23,-25.87,0,*7F
1502233572.83,30236,21.0,74374.0,7.95,-23.85,-26.33,0,*7A
1502233574.03,30237,21.0,74374.5,7.89,-24.05,-26.61,0,*7E
1502233575.24,30238,21.0,74376.5,7.89,-24.35,-26.87,0,*7A
1502233576.48,30239,21.0,74378.5,7.93,-24.47,-27.19,0,*73
1502233577.71,30240,21.0,74378.0,7.93,-24.47,-27.19,0,*7D
1502233578.92,30241,21.0,74380.0,7.93,-24.47,-27.13,0,*76
1502233580.15,30242,21.0,74382.3,7.89,-24.57,-27.23,0,*7C
1502233581.38,30243,21.0,74382.0,7.93,-24.61,-27.19,0,*7A
1502233582.59,30244,21.0,74374.5,7.89,-24.35,-26.87,0,*71
1502233583.85,30245,21.0,74370.3,7.89,-24.25,-26.81,0,*77
1502233585.08,30246,21.0,74370.5,7.89,-24.05,-26.55,0,*7F
1502233586.31,30247,21.0,74368.5,7.89,-24.41,-26.87,0,*71
1502233587.55,30248,21.06,74372.3,7.87,-24.47,-27.07,0,*7F
1502233588.79,30249,21.0,74372.8,7.87,-24.31,-27.07,0,*7F
1502233590.05,30250,21.0,74378.5,7.87,-24.41,-26.87,0,*79
1502233591.28,30251,21.0,74384.3,7.87,-24.57,-27.13,0,*73
1502233592.52,30252,21.06,74390.3,7.87,-24.61,-27.29,0,*7C
1502233593.73,30253,21.0,74382.8,7.85,-23.75,-26.23,0,*76
1502233595.0,30254,21.0,74380.0,7.87,-24.15,-26.71,0,*75
1502233596.28,30255,21.0,74382.3,7.87,-24.15,-26.77,0,*72
1502233597.49,30256,21.0,74378.5,7.85,-23.59,-25.91,0,*77
1502233598.75,30257,21.0,74378.0,7.87,-23.59,-25.97,0,*72
1502233600.01,30258,21.0,74380.3,7.87,-24.11,-26.39,0,*71
1502233601.21,30259,21.0,74382.5,7.89,-23.89,-26.23,0,*73
1502233602.42,30260,21.0,74380.5,7.89,-23.43,-25.91,0,*75
1502233603.64,30261,21.0,74386.3,7.89,-23.29,-25.87,0,*7F
1502233604.88,30262,21.06,74390.3,7.89,-23.53,-26.03,0,*7E
1502233606.13,30263,21.0,74386.8,7.89,-24.11,-26.55,0,*7D
1502233607.34,30264,21.0,74386.8,7.89,-24.35,-26.87,0,*73
1502233608.58,30265,21.06,74390.8,7.89,-24.25,-26.65,0,*7F
1502233609.81,30266,21.0,74390.3,7.89,-24.51,-27.19,0,*75
1502233611.05,30267,21.0,74394.0,7.89,-24.41,-26.87,0,*73
1502233612.27,30268,21.0,74388.5,7.89,-24.11,-26.49,0,*7B
1502233613.48,30269,21.0,74380.8,7.89,-23.13,-25.65,0,*72
1502233614.68,30270,21.0,74382.3,7.89,-22.67,-25.19,0,*73
1502233615.92,30271,21.06,74384.8,7.89,-23.09,-25.55,0,*73
1502233617.15,30272,21.0,74384.8,7.89,-23.29,-25.91,0,*7A
1502233618.41,30273,21.0,74380.0,7.93,-22.77,-25.29,0,*79
1502233619.66,30274,21.0,74384.5,7.93,-23.19,-25.81,0,*75
1502233620.9,30275,21.0,74384.5,7.93,-23.49,-26.03,0,*78
1502233622.14,30276,21.0,74382.3,7.93,-23.19,-25.61,0,*79
1502233623.35,30277,21.0,74374.8,7.93,-22.57,-25.13,0,*76
1502233624.6,30278,21.0,74370.8,7.97,-22.31,-24.83,0,*75
1502233625.85,30279,21.0,74366.0,7.97,-22.73,-25.45,0,*79
1502233627.08,30280,21.0,74368.8,7.97,-22.97,-25.55,0,*74
1502233628.31,30281,21.0,74364.8,8.01,-21.27,-23.79,0,*75
1502233629.53,30282,21.0,74360.0,8.03,-22.27,-24.97,0,*70
1502233630.73,30283,21.0,74370.3,8.01,-22.11,-24.51,0,*7C
1502233631.96,30284,21.0,74378.3,8.01,-21.83,-24.35,0,*71
1502233633.2,30285,21.0,74370.3,8.05,-22.21,-24.83,0,*72
1502233634.46,30286,21.0,74374.5,8.05,-21.67,-24.21,0,*78
1502233635.66,30287,21.0,74370.0,8.09,-21.77,-24.31,0,*75
1502233636.88,30288,21.0,74374.0,8.09,-21.97,-24.47,0,*75
1502233638.07,30289,21.0,74382.3,8.09,-23.39,-25.91,0,*78
1502233639.31,30290,21.0,74384.5,8.09,-23.09,-25.71,0,*7D
1502233640.53,30291,21.0,74384.8,8.09,-23.29,-25.91,0,*70
1502233641.79,30292,21.06,74386.3,8.09,-23.23,-25.75,0,*73
1502233642.99,30293,21.0,74384.0,8.09,-23.13,-25.61,0,*74
1502233644.25,30294,21.0,74386.5,8.11,-23.75,-26.17,0,*78
1502233645.46,30295,21.0,74388.0,8.11,-23.39,-25.91,0,*7C
1502233646.74,30296,21.0,74382.5,8.11,-23.23,-25.71,0,*7A
1502233648.02,30297,21.06,74376.0,8.11,-21.83,-24.41,0,*71
1502233649.25,30298,21.06,74378.8,8.11,-22.93,-25.39,0,*72
1502233650.45,30299,21.06,74378.5,8.15,-23.43,-26.03,0,*71
1502233651.66,30300,21.0,74376.0,8.15,-23.59,-26.03,0,*7B
1502233652.88,30301,21.0,74366.5,8.15,-23.75,-26.17,0,*71
1502233654.13,30302,21.0,74374.5,8.11,-23.49,-26.07,0,*78
1502233655.36,30303,21.0,74372.3,8.15,-23.43,-25.97,0,*7D
1502233656.61,30304,21.06,74380.8,8.15,-23.19,-25.81,0,*72
1502233657.85,30305,21.0,74380.0,8.15,-23.33,-25.81,0,*7B
1502233659.1,30306,21.0,74376.0,8.15,-22.31,-24.71,0,*75
1502233660.32,30307,21.06,74382.3,8.19,-22.97,-25.49,0,*7E
1502233661.57,30308,21.0,74384.0,8.17,-23.03,-25.49,0,*73
1502233662.8,30309,21.0,74378.8,8.19,-22.97,-25.45,0,*7C
1502233664.03,30310,21.0,74380.3,8.19,-23.95,-26.61,0,*72
1502233665.28,30311,21.0,74376.5,8.17,-23.95,-26.61,0,*7D
1502233666.53,30312,21.0,74378.0,8.17,-23.99,-26.65,0,*76
1502233667.79,30313,21.06,74380.0,8.17,-23.95,-26.39,0,*72
1502233669.04,30314,21.0,74376.5,8.17,-23.95,-26.45,0,*7E
1502233670.29,30315,21.0,74380.3,8.17,-23.95,-26.45,0,*7F
1502233671.52,30316,21.0,74380.5,8.15,-24.41,-27.03,0,*73
1502233672.74,30317,21.0,74382.8,8.15,-24.57,-27.19,0,*7E
1502233673.94,30318,21.06,74384.8,8.15,-24.57,-27.13,0,*7B
1502233675.18,30319,21.06,74386.3,8.11,-24.57,-27.19,0,*74
1502233676.44,30320,21.06,74388.3,8.11,-24.61,-27.35,0,*75
1502233677.72,30321,21.0,74384.3,8.11,-24.71,-27.35,0,*75
1502233678.98,30322,21.0,74384.5,8.11,-24.47,-27.19,0,*7D
1502233680.23,30323,21.0,74384.8,8.11,-24.57,-27.19,0,*7D
1502233681.43,30324,21.06,74382.0,8.15,-24.51,-27.03,0,*73
1502233682.66,30325,21.06,74384.3,8.11,-24.77,-27.51,0,*75
1502233683.91,30326,21.06,74388.3,8.11,-24.87,-27.51,0,*79
1502233685.14,30327,21.0,74382.0,8.09,-24.77,-27.35,0,*7C
1502233686.36,30328,21.0,74384.5,8.09,-24.77,-27.39,0,*7F
1502233687.59,30329,21.06,74388.3,8.09,-24.87,-27.51,0,*7F
1502233688.81,30330,21.06,74388.8,8.09,-24.87,-27.55,0,*73
1502233690.05,30331,21.06,74390.0,8.07,-24.87,-27.55,0,*7C
1502233691.26,30332,21.0,74386.3,8.07,-24.93,-27.55,0,*7A
1502233692.49,30333,21.0,74384.5,8.07,-24.47,-27.07,0,*75
1502233693.74,30334,21.06,74388.0,8.07,-24.51,-27.23,0,*73
1502233694.99,30335,21.0,74382.3,8.07,-24.31,-26.93,0,*7E
1502233696.24,30336,21.06,74384.5,8.05,-24.67,-27.19,0,*7F
1502233697.49,30337,21.0,74388.0,8.05,-24.67,-27.19,0,*7E
1502233698.78,30338,21.0,74384.3,8.03,-24.71,-27.35,0,*7E
1502233699.98,30339,21.06,74384.8,8.05,-24.51,-27.13,0,*7F
1502233701.21,30340,21.06,74388.5,8.05,-24.21,-27.03,0,*77
1502233702.41,30341,21.0,74386.0,8.05,-24.31,-26.87,0,*7A
1502233703.67,30342,21.06,74384.5,8.03,-24.21,-26.87,0,*7E
1502233704.87,30343,21.06,74384.5,8.05,-24.47,-27.13,0,*75
1502233706.12,30344,21.06,74382.0,8.05,-24.67,-27.19,0,*7A
1502233707.38,30345,21.0,74386.5,8.03,-24.67,-27.29,0,*7E
1502233708.63,30346,21.0,74384.3,8.03,-24.67,-27.29,0,*7D
1502233709.89,30347,21.0,74384.3,8.03,-24.47,-27.19,0,*7D
1502233711.13,30348,21.06,74384.0,8.03,-24.31,-27.03,0,*78